Location: Seattle
(47.6064°N, 122.3308°W)
Time: 01:16:05
(UTC-08:00)

Envisat - Pass Details

Date: 30 October 2020
Orbit: 764 x 766 km, 98.1° (Epoch: 03 December)

Event Time Altitude Azimuth Distance (km) Brightness Sun altitude
Rises 06:27:57 0° 21° (NNE) 3,244 6.5 -14.5°
Reaches altitude 10° 06:30:29 10° 31° (NNE) 2,312 5.8 -14.1°
Maximum altitude 06:35:04 33° 95° (E) 1,266 4.9 -13.3°
Drops below altitude 10° 06:39:38 10° 160° (SSE) 2,295 5.8 -12.6°
Sets 06:42:08 0° 169° (S) 3,216 6.5 -12.1°
